[[{"header":{"parameterUnit":"m.s-1","parameterCategory":1,"la1":30.2991,"la2":30.254,"lo1":-89.0895,"lo2":-89.0444,"dy":0.0017,"dx":0.0017,"nx":28,"ny":28,"refTime":"2025-04-30T21:00:00:Z","depth":0,"parameterNumber":2,"parameterNumberName":"U-component_of_WINDS"},"data":[0,0,0,0,0,0,0,0,0,0,0,0,0,0,0,0,0,0,0,0,0,0,0,0,0,0,0,0,0,0,0,0,0,0,0,0,0,0,0,0,0,0,0,0,0,0,0,0,0,0,0,0,0,0,0,0,0,0,-0.9426,-0.9427,0,-0.9474,-0.9475,-0.9475,-0.9495,-0.9495,-0.9494,-0.9494,-0.9545,-0.9546,-0.9547,0,0,0,0,0,0,0,0,0,0,0,0,0,-0.9353,-0.9354,-0.9426,-0.9427,-0.9427,-0.9474,-0.9475,-0.9475,-0.9495,-0.9495,-0.9494,-0.9494,-0.9544,-0.9546,-0.9548,0,0,0,0,0,0,0,0,0,0,0,0,0,-0.9391,-0.9355,-0.9426,-0.9443,-0.9445,-0.9474,-0.9475,-0.9476,-0.9495,-0.9495,-0.9494,-0.9494,-0.9544,-0.9546,-0.9548,-0.9565,0,0,-0.9554,-0.9555,0,0,0,0,0,0,0,0,-0.9389,-0.9394,-0.944,-0.9441,-0.9444,-0.9478,-0.9467,-0.9505,-0.9495,-0.9476,-0.9494,-0.9494,-0.9523,-0.9527,-0.9536,-0.9567,-0.9569,-0.9555,-0.9556,-0.9557,-0.9557,0,0,0,0,0,0,0,-0.9386,-0.9392,-0.9445,-0.944,-0.9443,-0.9448,-0.9453,-0.9475,-0.95,-0.9477,-0.9479,-0.9484,-0.9524,-0.9534,-0.9537,-0.957,-0.9554,-0.9556,-0.9558,-0.9559,-0.9618,-0.9618,0,0,0,0,0,0,-0.9381,-0.939,-0.9444,-0.9447,-0.9415,-0.945,-0.9456,-0.9467,-0.9499,-0.9504,-0.9484,-0.9485,-0.953,-0.9535,-0.9539,-0.9561,-0.9557,-0.9559,-0.956,-0.9617,-0.9618,-0.9618,0,0,0,0,0,0,-0.9379,-0.9385,-0.9442,-0.9419,-0.9426,-0.9451,-0.9464,-0.9468,-0.9478,-0.9505,-0.9509,-0.949,-0.953,-0.9536,-0.9558,-0.9563,-0.956,-0.9562,-0.9617,-0.9617,-0.9618,-0.9605,0,0,0,0,0,0,-0.9377,-0.9385,-0.9391,-0.9419,-0.9427,-0.9459,-0.9465,-0.9469,-0.9482,-0.9483,-0.9511,-0.9516,-0.9531,-0.9555,-0.956,-0.9566,-0.9563,-0.9617,-0.9617,-0.9618,-0.9605,-0.9605,-0.9605,0,0,0,0,0,-0.9374,-0.9386,-0.9391,-0.9398,-0.9435,-0.946,-0.9465,-0.9481,-0.9482,-0.9489,-0.9506,-0.9515,-0.9562,-0.9557,-0.9563,-0.957,-0.9616,-0.9617,-0.9618,-0.9605,-0.9605,-0.9605,0,0,0,0,0,0,-0.9358,-0.939,-0.9396,-0.9416,-0.9435,-0.9463,-0.9472,-0.9481,-0.95,-0.95,-0.9521,-0.9527,-0.9547,-0.9561,-0.9555,-0.9588,-0.959,-0.9592,-0.9578,-0.9578,-0.9578,-0.9575,-0.9565,0,0,0,0,0,-0.9357,-0.9374,-0.94,-0.9416,-0.9425,-0.9447,-0.9458,-0.9469,-0.9489,-0.9498,-0.9516,-0.9536,-0.9555,-0.9568,-0.9587,-0.9608,-0.9614,-0.9615,-0.9615,-0.9615,-0.9616,-0.9629,-0.963,-0.962,-0.962,-0.962,0,0,-0.9355,-0.9374,-0.9383,-0.9413,-0.9429,-0.9446,-0.9453,-0.9471,-0.9484,-0.95,-0.9522,-0.9537,-0.956,-0.9582,-0.9592,-0.9594,-0.962,-0.9616,-0.9615,-0.9617,-0.9629,-0.963,-0.9631,-0.962,-0.962,-0.962,0,0,-0.936,-0.9376,-0.9391,-0.9406,-0.943,-0.9445,-0.9448,-0.9475,-0.9485,-0.9507,-0.952,-0.9536,-0.9569,-0.9585,-0.9598,-0.9609,-0.9618,-0.9615,-0.9614,-0.9626,-0.9627,-0.9628,-0.9632,-0.9633,-0.9616,-0.9616,-0.9616,0,-0.9354,-0.938,-0.9397,-0.9414,-0.9427,-0.9443,-0.9458,-0.9473,-0.9502,-0.9511,-0.9512,-0.9554,-0.9571,-0.9596,-0.9599,-0.9609,-0.9614,-0.9612,-0.9625,-0.9626,-0.9627,-0.9632,-0.9633,-0.9616,-0.9616,-0.9616,-0.9616,0,-0.9372,-0.939,-0.9399,-0.9427,-0.9441,-0.9457,-0.9477,-0.949,-0.95,-0.9514,-0.9537,-0.9558,-0.9582,-0.9589,-0.9599,-0.9616,-0.9616,-0.9621,-0.9623,-0.9627,-0.9632,-0.9634,-0.9615,-0.9615,-0.9615,-0.9615,0,0,-0.9368,-0.9405,-0.9408,-0.9421,-0.9448,-0.9463,-0.948,-0.9503,-0.9513,-0.9533,-0.9548,-0.9576,-0.9581,-0.9595,-0.9607,-0.9618,-0.9626,-0.9621,-0.9622,-0.9622,-0.9647,-0.9643,-0.9645,-0.9632,-0.9632,-0.9633,-0.9645,0,-0.9377,-0.9408,-0.9424,-0.9449,-0.9466,-0.9481,-0.9496,-0.9515,-0.9529,-0.9546,-0.9562,-0.9581,-0.9585,-0.9594,-0.9605,-0.9622,-0.9631,-0.9622,-0.9647,-0.9647,-0.964,-0.9647,-0.9643,-0.9653,-0.9647,-0.9647,-0.9647,0,-0.9391,-0.941,-0.9436,-0.9462,-0.947,-0.9483,-0.9506,-0.9522,-0.9544,-0.9553,-0.9569,-0.9581,-0.9601,-0.9601,-0.9629,-0.9622,-0.9633,-0.9643,-0.9644,-0.9647,-0.9648,-0.965,-0.9657,-0.9659,-0.965,-0.965,-0.965,0,-0.9386,-0.9419,-0.9438,-0.9449,-0.9479,-0.9488,-0.9502,-0.9523,-0.9536,-0.9556,-0.9565,-0.9587,-0.9599,-0.9616,-0.9634,-0.9633,-0.966,-0.9662,-0.9669,-0.9668,-0.9674,-0.9673,-0.9683,-0.9681,-0.9681,-0.9681,-0.9681,0,-0.9395,-0.941,-0.9436,-0.9448,-0.9466,-0.9485,-0.9502,-0.9517,-0.9536,-0.9552,-0.9566,-0.9581,-0.9604,-0.9621,-0.9635,-0.9656,-0.9661,-0.967,-0.9674,-0.9669,-0.9668,-0.9677,-0.9676,-0.9681,-0.9681,-0.9681,-0.9681,0,-0.9392,-0.941,-0.9433,-0.946,-0.9467,-0.9479,-0.9502,-0.9515,-0.953,-0.955,-0.9556,-0.9579,-0.9601,-0.962,-0.9649,-0.9658,-0.9679,-0.9684,-0.9672,-0.9674,-0.968,-0.9679,-0.9695,-0.9698,-0.9694,-0.9694,-0.9694,0,-0.9396,-0.9408,-0.9436,-0.9447,-0.946,-0.9478,-0.9492,-0.9511,-0.9524,-0.955,-0.956,-0.9582,-0.9601,-0.9635,-0.9655,-0.9677,-0.9682,-0.9687,-0.9686,-0.9681,-0.9683,-0.9682,-0.9683,-0.9686,-0.9686,-0.9686,-0.9686,0,-0.9401,-0.941,-0.9428,-0.9449,-0.9465,-0.9483,-0.9501,-0.951,-0.9533,-0.9547,-0.9569,-0.9583,-0.9613,-0.9635,-0.9659,-0.9674,-0.9684,-0.9686,-0.9689,-0.9684,-0.9677,-0.9681,-0.9671,-0.9686,-0.9686,-0.9686,-0.9686,-0.9686,-0.9402,-0.9414,-0.9436,-0.9456,-0.9471,-0.9488,-0.9502,-0.9518,-0.9537,-0.9562,-0.9572,-0.9594,-0.9617,-0.965,-0.9665,-0.9683,-0.9685,-0.9689,-0.969,-0.9691,-0.969,-0.9674,-0.9687,-0.9687,-0.9687,-0.9687,-0.9687,0,-0.9409,-0.9424,-0.9442,-0.9467,-0.9483,-0.949,-0.9512,-0.9524,-0.9544,-0.9563,-0.9582,-0.9607,-0.9629,-0.9651,-0.9674,-0.9684,-0.9689,-0.9689,-0.9689,-0.9692,-0.9686,-0.9682,-0.9685,-0.9685,-0.9685,-0.9685,-0.9685,-0.9685,-0.9414,-0.9434,-0.9445,-0.9473,-0.9488,-0.951,-0.9521,-0.9537,-0.9553,-0.9581,-0.9599,-0.9612,-0.9633,-0.9658,-0.9678,-0.9684,-0.9692,-0.9691,-0.9698,-0.9693,-0.9693,-0.9693,-0.9688,-0.9693,-0.9693,-0.9703,-0.9703,-0.9703]},{"header":{"parameterUnit":"m.s-1","parameterCategory":1,"la1":30.2991,"la2":30.254,"lo1":-89.0895,"lo2":-89.0444,"dy":0.0017,"dx":0.0017,"nx":28,"ny":28,"refTime":"2025-04-30T21:00:00:Z","depth":0,"parameterNumber":3,"parameterNumberName":"V-component_of_WINDS"},"data":[0,0,0,0,0,0,0,0,0,0,0,0,0,0,0,0,0,0,0,0,0,0,0,0,0,0,0,0,0,0,0,0,0,0,0,0,0,0,0,0,0,0,0,0,0,0,0,0,0,0,0,0,0,0,0,0,0,0,3.902,3.9019,0,3.8973,3.8972,3.8972,3.8882,3.888,3.8879,3.8877,3.8829,3.8829,3.8829,0,0,0,0,0,0,0,0,0,0,0,0,0,3.9031,3.9032,3.902,3.9019,3.9019,3.8973,3.8972,3.8971,3.8882,3.888,3.8878,3.8876,3.8828,3.8829,3.8829,0,0,0,0,0,0,0,0,0,0,0,0,0,3.901,3.9032,3.902,3.8969,3.8964,3.8973,3.8972,3.8971,3.8883,3.888,3.8878,3.8875,3.8828,3.8829,3.8829,3.8885,0,0,3.8831,3.8831,0,0,0,0,0,0,0,0,3.9011,3.9009,3.8977,3.8972,3.8967,3.8931,3.8958,3.8942,3.8884,3.8914,3.8877,3.8874,3.8865,3.8862,3.8859,3.8882,3.888,3.8831,3.8831,3.8831,3.8832,0,0,0,0,0,0,0,3.9013,3.9011,3.9001,3.8976,3.897,3.8948,3.8942,3.8955,3.8904,3.8911,3.8904,3.89,3.8861,3.8859,3.8857,3.8879,3.8831,3.8831,3.8832,3.8832,3.8943,3.8945,0,0,0,0,0,0,3.9022,3.9013,3.9003,3.9,3.8983,3.895,3.8943,3.8945,3.8904,3.8895,3.8902,3.8896,3.8859,3.8857,3.8855,3.8914,3.8831,3.8832,3.8832,3.894,3.8943,3.8946,0,0,0,0,0,0,3.9022,3.9022,3.9004,3.9004,3.9,3.8952,3.8955,3.8945,3.8942,3.8897,3.8888,3.8909,3.8857,3.8854,3.8877,3.8911,3.8832,3.8833,3.8937,3.8941,3.8945,3.9035,0,0,0,0,0,0,3.9023,3.9022,3.9043,3.9005,3.9001,3.9028,3.8957,3.8946,3.8943,3.8935,3.8901,3.8893,3.8855,3.8877,3.8878,3.8911,3.8833,3.8933,3.8939,3.8943,3.9029,3.9042,3.9053,0,0,0,0,0,3.9024,3.9071,3.9045,3.9044,3.9026,3.903,3.9028,3.8983,3.8947,3.8967,3.8937,3.8894,3.8908,3.888,3.888,3.8914,3.8931,3.8937,3.8943,3.9024,3.9039,3.9053,0,0,0,0,0,0,3.9115,3.9065,3.9035,3.9072,3.9056,3.9015,3.9039,3.9001,3.8995,3.8987,3.8932,3.8925,3.8954,3.8937,3.8906,3.8964,3.8912,3.8919,3.8974,3.8988,3.9,3.9003,3.8833,0,0,0,0,0,3.9139,3.9147,3.9104,3.914,3.9134,3.9088,3.9089,3.9055,3.9036,3.9029,3.9001,3.8984,3.8984,3.8986,3.8984,3.9027,3.9016,3.905,3.9062,3.9072,3.9077,3.9096,3.9109,3.8965,3.8965,3.8965,0,0,3.919,3.9164,3.9172,3.9158,3.9141,3.915,3.9083,3.9096,3.9101,3.9031,3.905,3.9029,3.9006,3.9039,3.9052,3.9025,3.9115,3.9079,3.9088,3.9087,3.9103,3.9117,3.9129,3.897,3.8969,3.8968,0,0,3.9285,3.9267,3.9294,3.9279,3.9255,3.9224,3.9231,3.9195,3.9179,3.9197,3.9144,3.9149,3.9152,3.9137,3.913,3.9218,3.9177,3.9219,3.9281,3.93,3.9311,3.9321,3.935,3.9361,3.9225,3.9226,3.9226,0,3.935,3.9361,3.9313,3.9328,3.9323,3.926,3.9286,3.9274,3.925,3.9247,3.9218,3.9218,3.9198,3.9225,3.9246,3.9243,3.9248,3.9222,3.9313,3.9323,3.9331,3.9358,3.9369,3.9231,3.923,3.9229,3.9229,0,3.9442,3.945,3.9475,3.9453,3.9451,3.9472,3.9426,3.9429,3.9396,3.9368,3.9387,3.9361,3.9351,3.9355,3.9324,3.9377,3.9361,3.9324,3.927,3.935,3.9375,3.9385,3.9238,3.9236,3.9235,3.9233,0,0,3.9592,3.9543,3.9553,3.9541,3.9509,3.9514,3.9532,3.9522,3.9525,3.9511,3.9523,3.9526,3.949,3.9482,3.9448,3.9465,3.9533,3.9424,3.9423,3.9443,3.9587,3.9613,3.9626,3.9506,3.9508,3.951,3.9588,0,3.9679,3.9706,3.9662,3.9699,3.9705,3.9644,3.9659,3.9641,3.9615,3.9616,3.9588,3.9589,3.9544,3.9538,3.9552,3.9522,3.9561,3.9516,3.9515,3.9515,3.952,3.9639,3.9668,3.9743,3.9597,3.9599,3.96,0,3.9783,3.9773,3.981,3.9774,3.9775,3.9789,3.9776,3.9778,3.9755,3.9735,3.9726,3.9685,3.9698,3.9649,3.9665,3.9635,3.9633,3.9618,3.9619,3.9616,3.9561,3.9637,3.9766,3.9777,3.9615,3.9614,3.9613,0,3.9886,3.9882,3.9903,3.9895,3.9855,3.9866,3.9849,3.9824,3.982,3.9809,3.9805,3.9796,3.979,3.9783,3.974,3.9709,3.9761,3.9708,3.9742,3.9744,3.9754,3.9754,3.9883,3.9757,3.9757,3.9757,3.9757,0,3.9986,4.001,3.9948,3.9961,3.9986,3.9936,3.9962,3.9939,3.9917,3.9923,3.9871,3.9878,3.9823,3.9823,3.979,3.9807,3.9805,3.9788,3.9778,3.9791,3.9793,3.9787,3.978,3.976,3.9759,3.9758,3.9758,0,4.0104,4.0064,4.0082,4.0042,4.0032,4.0052,4.0017,4.0027,3.9998,4.0006,4.0005,3.9959,3.9957,3.9914,3.9903,3.988,3.991,3.9892,3.9917,3.991,3.9946,3.9942,4.0074,4.0087,3.9956,3.9957,3.9958,0,4.0169,4.0186,4.0147,4.0148,4.0134,4.0135,4.0131,4.0082,4.008,4.0054,4.0066,4.006,4.0052,4.005,4.0015,4.0006,3.9986,4.0032,3.9984,3.9995,3.9983,3.9982,3.9982,4.0042,4.0044,4.0045,4.0046,0,4.0288,4.0267,4.0263,4.0251,4.0248,4.0236,4.0222,4.0225,4.0171,4.0171,4.0168,4.0162,4.0149,4.0143,4.0127,4.0108,4.0068,4.0062,4.0069,4.0081,4.0094,4.0085,3.9942,4.0059,4.0058,4.0057,4.0056,4.0055,4.0379,4.039,4.0365,4.0361,4.0345,4.0333,4.0339,4.031,4.0307,4.0293,4.0265,4.0265,4.024,4.0214,4.0199,4.0198,4.0174,4.0185,4.0187,4.019,4.0196,4.0096,4.0196,4.0195,4.0195,4.0194,4.0194,0,4.0493,4.0473,4.0471,4.0451,4.0448,4.0412,4.0393,4.0393,4.0394,4.0374,4.0367,4.0362,4.0355,4.032,4.0308,4.0314,4.0295,4.0312,4.031,4.0306,4.022,4.0214,4.0328,4.0328,4.0328,4.0328,4.0328,4.0328,4.0551,4.0568,4.0544,4.0551,4.0531,4.0531,4.0524,4.0511,4.0495,4.0492,4.0486,4.0463,4.0436,4.0422,4.0413,4.0403,4.04,4.0423,4.0406,4.0326,4.0313,4.03,4.0294,4.0424,4.0424,4.0492,4.0493,4.0494]}]]